CW6185 Weather Reports


Display with metric or nautical units.
time (UTC)temp
F
wind
direction
speed
MPH
gust
MPH
rain 1hr
in
rain 24hr
in
rain mn
in
humidity
%
barometer
mb
20260506203511 54 0 0.0 0.0 0.00 0.16 0.16 83 1007.9
20260506155014 66 0 0.0 0.0 0.00 0.16 0.16 63 1004.7
20260506153511 67 0 0.0 0.0 0.00 0.16 0.16 61 1004.7
20260506152011 67 0 0.0 0.0 0.00 0.16 0.16 61 1004.6
20260506150511 67 0 0.0 0.0 0.00 0.16 0.16 62 1004.5
20260506145010 67 0 0.0 0.0 0.00 0.16 0.16 61 1004.5
20260506142013 68 0 0.0 0.0 0.00 0.16 0.16 60 1004.4
20260506140510 68 0 0.0 0.0 0.00 0.16 0.16 60 1004.4
20260506135013 69 0 0.0 0.0 0.00 0.16 0.16 61 1004.4
20260506133510 68 0 0.0 0.0 0.00 0.16 0.16 60 1004.5
20260506132010 68 0 0.0 0.0 0.00 0.16 0.16 61 1004.4
20260506130510 67 0 0.0 0.0 0.00 0.16 0.16 61 1004.6
20260506125010 67 0 0.0 0.0 0.00 0.16 0.16 60 1004.6
20260506123509 68 0 0.0 0.0 0.00 0.16 0.16 57 1004.6
20260506122009 68 0 0.0 0.0 0.00 0.16 0.16 58 1004.6
20260506120514 67 0 0.0 0.0 0.00 0.16 0.16 60 1004.6
20260506115014 67 0 0.0 0.0 0.00 0.16 0.16 61 1004.8
20260506113517 66 0 0.0 0.0 0.00 0.16 0.16 66 1004.8
20260506112017 65 0 0.0 0.0 0.00 0.16 0.16 65 1004.9
20260506110517 66 0 0.0 0.0 0.00 0.16 0.16 67 1004.9
20260506100513 64 0 0.0 0.0 0.01 0.16 0.16 72 1005.2
20260506095013 64 0 0.0 0.0 0.00 0.15 0.15 71 1005.3
20260506093513 65 0 0.0 0.0 0.00 0.15 0.15 71 1005.2
20260506090513 64 0 0.0 0.0 0.00 0.15 0.15 72 1005.0
20260506085013 64 0 0.0 0.0 0.00 0.15 0.15 74 1004.8
20260506082027 62 0 0.0 0.0 0.01 0.15 0.15 81 1004.8
20260506080512 61 0 0.0 0.0 0.01 0.15 0.15 84 1004.8
20260506072012 59 0 0.0 0.0 0.01 0.14 0.14 94 1004.8
20260506070512 58 0 0.0 0.0 0.01 0.14 0.14 96 1004.7
20260506062012 56 0 0.0 0.0 0.00 0.13 0.13 96 1004.8
20260506060511 55 0 0.0 0.0 0.01 0.13 0.13 96 1004.7
20260506050511 54 0 0.0 0.0 0.01 0.13 0.13 96 1004.8
20260506045011 54 0 0.0 0.0 0.01 0.13 0.13 96 1004.7
20260506043514 54 0 0.0 0.0 0.01 0.13 0.13 96 1004.7
20260506035010 55 0 0.0 0.0 0.01 0.12 0.12 96 1004.9
20260506033513 55 0 0.0 0.0 0.02 0.12 0.12 95 1005.0
20260506032013 55 0 0.0 0.0 0.01 0.11 0.11 95 1004.9
20260506030510 55 0 0.0 0.0 0.01 0.11 0.11 95 1005.0
20260506025013 55 0 0.0 0.0 0.02 0.11 0.11 95 1005.1
20260506022010 55 0 0.0 0.0 0.01 0.10 0.10 95 1005.1
20260506015009 54 0 0.0 0.0 0.02 0.09 0.09 95 1005.1
20260506013510 54 0 0.0 0.0 0.02 0.09 0.09 94 1005.3
20260506010512 55 0 0.0 0.0 0.02 0.09 0.09 94 1005.3
20260506005014 55 0 0.0 0.0 0.02 0.08 0.08 95 1005.5
20260506003517 56 0 0.0 0.0 0.02 0.08 0.08 94 1005.5
20260506002014 56 0 0.0 0.0 0.02 0.07 0.07 94 1005.7
20260506000514 56 0 0.0 0.0 0.03 0.07 0.07 94 1005.7
20260505233514 57 0 0.0 0.0 0.03 0.06 0.06 94 1005.8
20260505232013 57 0 0.0 0.0 0.03 0.05 0.05 94 1005.9
20260505230514 57 0 0.0 0.0 0.03 0.04 0.04 94 1006.0
20260505225013 58 0 0.0 0.0 0.03 0.03 0.03 94 1006.1
20260505223516 58 0 0.0 0.0 0.02 0.02 0.02 94 1005.9
20260505220513 58 0 0.0 0.0 0.01 0.01 0.01 93 1005.9
20260505215013 58 0 0.0 0.0 0.04 0.20 0.20 93 1006.0
20260505213513 58 0 0.0 0.0 0.04 0.20 0.20 93 1006.2
20260505212013 58 0 0.0 0.0 0.04 0.19 0.19 92 1006.2
20260505210512 58 0 0.0 0.0 0.05 0.18 0.18 92 1006.2
20260505205012 58 0 0.0 0.0 0.03 0.17 0.17 91 1006.3